sat.trackr.live / text

‹ back to catalog

STARLINK-37831

NORAD 69489 · 2026-131M

PAYLOAD ACTIVE UNKNOWN

§ Identity

Operator
Country
US
Launch date
2026-06-11
Launch site
AFWTR
Launch vehicle
Mass (kg)
RCS (m²)

Purposes: comms

External: N2YO · Heavens-Above · Gunter

§ Orbital elements

Epoch: 2026-09-20T00:22:28.926048Z

Period
93.91 min
Inclination
97.2844°
Eccentricity
0.0001751
Mean motion
15.33455402 rev/d
Perigee alt
464.3 km
Apogee alt
466.7 km
Semi-major
6,843.6 km
B*
2.9783e-4
RAAN
283.8927°
Arg perigee
103.7914°
Mean anomaly
256.3524°
Rev number
1,682

§ Raw data

STARLINK-378311 69489U 26131M   26263.01561257  .00009556  00000+0  29783-3 0  99912 69489  97.2844 283.8927 0001751 103.7914 256.3524 15.33455402 16826

JSON: /api/v1/satellites/69489 · /tle

For live sub-satellite position, see the globe view (requires WebGL).

§ Visibility from observer

Set your observer location to see the next 7 days of passes ≥ 10°. The values pass through the URL so the page stays shareable.

No JS? Fill the form by hand. The geolocation button needs JavaScript.